AE5HO Weather Reports


time (UTC)temp
F
wind
direction
speed
knots
gust
knots
rain 1hr
in
rain 24hr
in
rain mn
in
humidity
%
barometer
mb
20260506073217 59 68 2.6 6.1 0.00 0.00 0.00 77 1009.7
20260506072714 60 270 0.0 2.6 0.00 0.00 0.00 77 1010.0
20260506072211 60 279 1.7 4.3 0.00 0.00 0.00 77 1010.3
20260506071709 60 177 2.6 2.6 0.00 0.00 0.00 78 1010.2
20260506071207 60 169 0.0 3.5 0.00 0.00 0.00 77 1010.0
20260506070703 60 75 0.0 2.6 0.00 0.00 0.00 77 1010.4
20260506070200 60 162 0.9 5.2 0.00 0.00 0.00 77 1010.3
20260506062137 61 84 1.7 4.3 0.00 0.00 0.00 79 1010.0
20260506061633 61 344 1.7 3.5 0.00 0.00 0.00 79 1010.4
20260506061131 61 278 0.0 2.6 0.00 0.00 0.00 79 1010.3
20260506060629 61 355 1.7 4.3 0.00 0.00 0.00 79 1010.1
20260506060126 61 81 0.0 4.3 0.00 0.00 0.00 80 1010.3
20260506051058 62 159 2.6 3.5 0.00 0.00 0.00 79 1010.3
20260506050555 62 16 1.7 2.6 0.00 0.00 0.00 79 1010.2
20260506045046 63 30 0.0 3.5 0.00 0.00 0.00 79 1010.3
20260506044544 63 340 2.6 4.3 0.00 0.00 0.00 79 1009.9
20260506044041 63 29 0.0 6.1 0.00 0.00 0.00 79 1010.3
20260506043538 63 6 2.6 6.1 0.00 0.00 0.00 78 1010.3
20260506043036 64 3 2.6 6.1 0.00 0.00 0.00 78 1010.2
20260506042535 64 254 0.0 3.5 0.00 0.00 0.00 79 1010.2
20260506042032 64 233 2.6 3.5 0.00 0.00 0.00 78 1010.1
20260506041531 64 276 2.6 4.3 0.00 0.00 0.00 79 1009.9
20260506041027 64 71 2.6 7.8 0.00 0.00 0.00 78 1009.6
20260506040525 64 7 0.0 5.2 0.00 0.00 0.00 79 1009.8
20260506040021 65 90 2.6 3.5 0.00 0.00 0.00 78 1009.8
20260506035518 65 105 0.9 4.3 0.00 0.00 0.00 78 1009.5
20260506035015 65 82 2.6 5.2 0.00 0.00 0.00 78 1009.5
20260506034512 65 85 1.7 3.5 0.00 0.00 0.00 78 1009.3
20260506034009 66 90 3.5 5.2 0.00 0.00 0.00 78 1009.0
20260506033507 66 159 1.7 2.6 0.00 0.00 0.00 78 1009.2
20260506033004 66 84 2.6 6.1 0.00 0.00 0.00 78 1009.0
20260506032501 67 195 1.7 1.7 0.00 0.00 0.00 77 1009.0
20260506031956 67 18 0.0 3.5 0.00 0.00 0.00 77 1008.8
20260506031455 67 74 1.7 3.5 0.00 0.00 0.00 77 1008.9
20260506030952 68 25 0.0 6.1 0.00 0.00 0.00 77 1009.1
20260506030450 68 315 1.7 3.5 0.00 0.00 0.00 76 1008.7
20260506025946 69 75 2.6 2.6 0.00 0.00 0.00 76 1008.8
20260506025443 69 174 0.0 10.4 0.00 0.00 0.00 76 1008.6
20260506024940 69 82 0.0 4.3 0.00 0.00 0.00 75 1008.7
20260506024437 69 186 0.9 4.3 0.00 0.00 0.00 75 1008.6
20260506023932 69 41 1.7 3.5 0.00 0.00 0.00 75 1008.3
20260506023429 69 180 0.0 5.2 0.00 0.00 0.00 75 1008.1
20260506022926 69 80 2.6 4.3 0.00 0.00 0.00 75 1008.2
20260506022424 69 21 1.7 2.6 0.00 0.00 0.00 74 1007.8
20260506021922 69 102 5.2 5.2 0.00 0.00 0.00 74 1007.7
20260506021419 69 90 1.7 4.3 0.00 0.00 0.00 73 1007.3
20260506020916 70 8 0.0 4.3 0.00 0.00 0.00 73 1007.7
20260506020414 70 151 0.0 4.3 0.00 0.00 0.00 73 1007.7
20260506015910 70 283 0.0 3.5 0.00 0.00 0.00 72 1007.2
20260506015408 70 122 0.0 4.3 0.00 0.00 0.00 72 1006.8
20260506014904 70 2 3.5 3.5 0.00 0.00 0.00 72 1006.9
20260506014401 71 301 0.0 2.6 0.00 0.00 0.00 72 1006.6
20260506013858 71 77 0.0 1.7 0.00 0.00 0.00 72 1007.0
20260506013356 71 249 0.9 4.3 0.00 0.00 0.00 72 1006.6
20260506012852 71 270 0.0 3.5 0.00 0.00 0.00 72 1006.9
20260506012349 71 8 0.0 4.3 0.00 0.00 0.00 71 1006.5
20260506011846 72 263 0.9 2.6 0.00 0.00 0.00 71 1006.7
20260506011343 72 187 0.0 3.5 0.00 0.00 0.00 71 1006.6
20260506010840 73 84 0.0 3.5 0.00 0.00 0.00 70 1006.7
20260506010338 73 0 0.0 3.5 0.00 0.00 0.00 69 1006.6
20260506005835 73 283 0.9 3.5 0.00 0.00 0.00 69 1006.5
20260506005331 73 90 0.0 3.5 0.00 0.00 0.00 68 1006.6
20260506004827 74 98 0.9 2.6 0.00 0.00 0.00 69 1006.1
20260506004325 74 90 0.0 4.3 0.00 0.00 0.00 68 1005.8
20260506003821 74 192 0.0 2.6 0.00 0.00 0.00 68 1005.5
20260506003318 75 112 0.0 3.5 0.00 0.00 0.00 67 1005.8
20260506002814 75 84 2.6 2.6 0.00 0.00 0.00 67 1005.7
20260506002311 75 90 1.7 3.5 0.00 0.00 0.00 67 1005.4
20260506001806 76 37 0.0 3.5 0.00 0.00 0.00 67 1005.4
20260506001304 76 76 0.0 3.5 0.00 0.00 0.00 67 1005.4
20260506000801 77 277 3.5 4.3 0.00 0.00 0.00 66 1005.5
20260506000258 77 17 2.6 4.3 0.00 0.00 0.00 66 1005.4
20260505235755 78 56 1.7 3.5 0.00 0.00 0.00 65 1005.1
20260505235253 79 78 0.0 4.3 0.00 0.00 0.00 65 1005.3
20260505234749 79 83 0.0 4.3 0.00 0.00 0.00 64 1005.3
20260505234247 79 254 0.9 5.2 0.00 0.00 0.00 64 1005.0
20260505233743 80 345 0.0 3.5 0.00 0.00 0.00 63 1005.0
20260505233241 80 245 0.0 7.0 0.00 0.00 0.00 63 1004.9
20260505232738 81 321 3.5 3.5 0.00 0.00 0.00 63 1004.9
20260505232236 81 233 2.6 4.3 0.00 0.00 0.00 62 1004.9
20260505231732 82 270 0.0 4.3 0.00 0.00 0.00 62 1004.9
20260505231231 83 83 2.6 2.6 0.00 0.00 0.00 61 1004.8
20260505230729 83 320 4.3 4.3 0.00 0.00 0.00 60 1004.8
20260505230225 83 90 2.6 6.1 0.00 0.00 0.00 59 1004.7
20260505225722 84 270 0.0 3.5 0.00 0.00 0.00 58 1004.5
20260505225219 84 293 0.0 4.3 0.00 0.00 0.00 58 1004.4
20260505224714 84 270 3.5 4.3 0.00 0.00 0.00 57 1004.1
20260505224212 85 234 0.9 4.3 0.00 0.00 0.00 56 1004.3
20260505223710 85 323 0.0 3.5 0.00 0.00 0.00 55 1004.2
20260505223205 85 294 2.6 4.3 0.00 0.00 0.00 53 1004.4
20260505222702 86 351 1.7 6.1 0.00 0.00 0.00 52 1004.1
20260505222158 86 270 2.6 5.2 0.00 0.00 0.00 53 1004.0
20260505221655 86 285 2.6 5.2 0.00 0.00 0.00 52 1003.9
20260505221152 87 319 1.7 2.6 0.00 0.00 0.00 52 1003.8
20260505220649 87 188 0.0 2.6 0.00 0.00 0.00 50 1003.8
20260505220147 88 60 0.9 2.6 0.00 0.00 0.00 52 1003.6
20260505215644 88 130 3.5 3.5 0.00 0.00 0.00 51 1003.5
20260505215142 89 270 2.6 4.3 0.00 0.00 0.00 53 1003.8
20260505214640 90 270 0.9 1.7 0.00 0.00 0.00 55 1003.7
20260505214137 90 246 1.7 2.6 0.00 0.00 0.00 54 1003.9
20260505213634 90 270 2.6 2.6 0.00 0.00 0.00 54 1003.8
20260505213131 90 331 0.0 3.5 0.00 0.00 0.00 54 1003.9
20260505212626 90 188 0.0 0.9 0.00 0.00 0.00 56 1003.8
20260505212125 90 270 0.9 3.5 0.00 0.00 0.00 54 1003.7
20260505211621 90 228 1.7 2.6 0.00 0.00 0.00 57 1003.9
20260505211119 89 255 0.0 3.5 0.00 0.00 0.00 56 1004.2
20260505210615 90 297 0.9 3.5 0.00 0.00 0.00 57 1004.1
20260505210112 90 221 1.7 4.3 0.00 0.00 0.00 57 1003.9
20260505205609 89 309 1.7 4.3 0.00 0.00 0.00 58 1004.4
20260505205107 89 270 1.7 5.2 0.00 0.00 0.00 56 1004.4
20260505204604 89 195 0.9 2.6 0.00 0.00 0.00 58 1004.3
20260505204101 90 270 0.9 5.2 0.00 0.00 0.00 59 1004.2
20260505203558 89 263 0.9 2.6 0.00 0.00 0.00 59 1004.3
20260505203055 89 277 4.3 6.1 0.00 0.00 0.00 58 1004.2
20260505202551 90 180 0.0 1.7 0.00 0.00 0.00 59 1004.5
20260505202047 90 270 1.7 5.2 0.00 0.00 0.00 59 1004.8
20260505201544 89 270 2.6 5.2 0.00 0.00 0.00 60 1004.6
20260505201042 89 270 1.7 1.7 0.00 0.00 0.00 59 1004.7
20260505200539 88 286 1.7 2.6 0.00 0.00 0.00 61 1004.8
20260505200036 88 246 2.6 5.2 0.00 0.00 0.00 59 1004.9
20260505195532 88 240 0.0 6.1 0.00 0.00 0.00 61 1004.7
20260505195030 88 285 0.0 4.3 0.00 0.00 0.00 62 1004.5
20260505194527 87 294 0.9 3.5 0.00 0.00 0.00 63 1004.8
20260505194022 87 270 0.0 7.0 0.00 0.00 0.00 62 1004.8
20260505193520 87 306 0.9 4.3 0.00 0.00 0.00 62 1004.7
20260505193017 87 295 0.0 5.2 0.00 0.00 0.00 63 1004.9
20260505192516 87 270 0.0 5.2 0.00 0.00 0.00 64 1005.0
20260505192013 87 236 1.7 2.6 0.00 0.00 0.00 64 1004.8
20260505191511 86 270 2.6 7.0 0.00 0.00 0.00 64 1005.0
20260505191008 86 253 1.7 4.3 0.00 0.00 0.00 66 1004.8
20260505190503 85 262 0.9 2.6 0.00 0.00 0.00 66 1004.6
20260505185958 85 201 1.7 2.6 0.00 0.00 0.00 66 1004.7
20260505185456 85 255 4.3 6.1 0.00 0.00 0.00 67 1004.8
20260505184952 85 240 0.0 6.1 0.00 0.00 0.00 67 1004.8
20260505184449 85 270 0.0 1.7 0.00 0.00 0.00 68 1004.8
20260505183945 84 265 1.7 4.3 0.00 0.00 0.00 68 1005.0
20260505183442 84 270 0.0 6.1 0.00 0.00 0.00 69 1005.0
20260505182939 84 262 2.6 4.3 0.00 0.00 0.00 69 1005.3
20260505182436 83 216 2.6 4.3 0.00 0.00 0.00 69 1005.1
20260505181932 84 201 1.7 7.0 0.00 0.00 0.00 69 1005.0
20260505181430 83 277 2.6 2.6 0.00 0.00 0.00 69 1005.0
20260505180927 83 262 2.6 7.8 0.00 0.00 0.00 68 1005.3
20260505180423 84 257 3.5 11.3 0.00 0.00 0.00 68 1005.0
20260505175919 84 270 1.7 5.2 0.00 0.00 0.00 69 1005.2
20260505175416 84 217 0.0 2.6 0.00 0.00 0.00 69 1005.1
20260505174912 83 270 4.3 8.7 0.00 0.00 0.00 68 1005.0
20260505174410 83 278 0.9 4.3 0.00 0.00 0.00 68 1004.9
20260505173906 84 225 1.7 3.5 0.00 0.00 0.00 67 1005.2
20260505173402 83 268 5.2 7.0 0.00 0.00 0.00 69 1005.0
20260505172859 83 194 0.0 7.8 0.00 0.00 0.00 71 1005.0
20260505172357 82 270 0.9 6.1 0.00 0.00 0.00 70 1005.0
20260505171857 83 262 2.6 7.8 0.00 0.00 0.00 70 1005.0
20260505171353 84 277 0.9 2.6 0.00 0.00 0.00 70 1005.2
20260505170850 83 270 0.0 2.6 0.00 0.00 0.00 72 1005.0
20260505170347 83 233 1.7 3.5 0.00 0.00 0.00 72 1005.3
20260505165842 82 276 0.0 4.3 0.00 0.00 0.00 72 1005.0
20260505165338 81 263 2.6 5.2 0.00 0.00 0.00 72 1005.3
20260505164834 81 270 2.6 5.2 0.00 0.00 0.00 72 1005.2
20260505164331 81 258 2.6 2.6 0.00 0.00 0.00 73 1005.0
20260505163829 81 265 1.7 4.3 0.00 0.00 0.00 73 1005.1
20260505163328 80 109 1.7 6.1 0.00 0.00 0.00 73 1004.9
20260505162826 80 243 4.3 5.2 0.00 0.00 0.00 74 1005.0
20260505162322 80 210 2.6 6.1 0.00 0.00 0.00 74 1005.0
20260505161819 81 187 1.7 3.5 0.00 0.00 0.00 75 1005.1
20260505161316 80 83 0.9 4.3 0.00 0.00 0.00 76 1004.9
20260505160814 79 243 0.0 4.3 0.00 0.00 0.00 77 1005.2
20260505160312 79 293 1.7 3.5 0.00 0.00 0.00 77 1004.9
20260505153250 77 273 2.6 7.8 0.00 0.00 0.00 79 1005.0
20260505152747 77 270 1.7 3.5 0.00 0.00 0.00 79 1004.9
20260505152244 77 262 2.6 3.5 0.00 0.00 0.00 79 1004.9
20260505151744 77 246 1.7 4.3 0.00 0.00 0.00 79 1005.0
20260505151242 77 263 0.9 3.5 0.00 0.00 0.00 80 1004.8
20260505150738 77 198 3.5 3.5 0.00 0.00 0.00 80 1004.9
20260505150236 76 240 1.7 3.5 0.00 0.00 0.00 81 1005.1
20260505140206 73 236 2.6 5.2 0.00 0.00 0.00 85 1004.6
20260505130130 71 254 4.3 4.3 0.00 0.00 0.00 88 1004.5
20260505124619 71 198 0.9 3.5 0.00 0.00 0.00 88 1004.3
20260505124115 71 202 2.6 8.7 0.00 0.00 0.00 88 1004.4
20260505123612 71 175 0.0 3.5 0.00 0.00 0.00 88 1004.5
20260505123108 71 279 0.0 1.7 0.00 0.00 0.00 88 1004.1
20260505122605 71 168 1.7 4.3 0.00 0.00 0.00 88 1004.2
20260505122102 71 101 1.7 4.3 0.00 0.00 0.00 88 1004.1
20260505121559 71 219 2.6 3.5 0.00 0.00 0.00 88 1004.1
20260505121056 71 223 4.3 4.3 0.00 0.00 0.00 89 1004.1
20260505120552 71 83 0.9 2.6 0.00 0.00 0.00 89 1003.9
20260505120048 71 255 2.6 5.2 0.00 0.00 0.00 89 1004.0
20260505115542 71 259 1.7 5.2 0.00 0.00 0.00 89 1004.0
20260505115040 71 255 0.9 5.2 0.00 0.00 0.00 89 1004.2
20260505114537 71 191 0.0 4.3 0.00 0.00 0.00 88 1003.9
20260505114033 71 249 2.6 3.5 0.00 0.00 0.00 89 1003.9
20260505113530 71 180 0.9 4.3 0.00 0.00 0.00 88 1004.0
20260505113026 71 186 0.0 2.6 0.00 0.00 0.00 89 1003.9
20260505112522 71 206 0.0 2.6 0.00 0.00 0.00 89 1003.9
20260505112021 71 262 0.0 4.3 0.00 0.00 0.00 89 1003.8
20260505111514 71 270 2.6 4.3 0.00 0.00 0.00 89 1003.8
20260505111010 71 188 0.0 2.6 0.00 0.00 0.00 89 1003.8
20260505110507 71 257 0.0 3.5 0.00 0.00 0.00 88 1004.2
20260505101940 71 217 1.7 5.2 0.00 0.00 0.00 86 1003.7
20260505101438 71 264 0.9 11.3 0.00 0.00 0.00 86 1003.9
20260505100934 71 278 1.7 4.3 0.00 0.00 0.00 86 1004.0
20260505100431 71 239 2.6 4.3 0.00 0.00 0.00 86 1004.2
20260505095927 71 261 2.6 2.6 0.00 0.00 0.00 86 1004.1
20260505095424 71 215 0.0 3.5 0.00 0.00 0.00 86 1004.3
20260505094920 72 270 0.9 4.3 0.00 0.00 0.00 86 1004.1
20260505094418 72 270 0.0 1.7 0.00 0.00 0.00 86 1004.1
20260505093913 72 180 0.0 4.3 0.00 0.00 0.00 85 1003.8
20260505093410 72 180 0.0 4.3 0.00 0.00 0.00 85 1004.0
20260505092908 72 180 0.0 2.6 0.00 0.00 0.00 85 1003.9
20260505092406 72 196 1.7 6.1 0.00 0.00 0.00 85 1004.0
20260505091903 72 261 1.7 5.2 0.00 0.00 0.00 85 1004.0
20260505091400 72 254 2.6 2.6 0.00 0.00 0.00 85 1004.2
20260505090858 72 166 1.7 2.6 0.00 0.00 0.00 85 1004.2
20260505090356 72 233 2.6 6.1 0.00 0.00 0.00 85 1004.3
20260505085853 72 253 1.7 5.2 0.00 0.00 0.00 85 1004.5
20260505085351 72 254 1.7 4.3 0.00 0.00 0.00 85 1004.3
20260505084849 72 174 0.9 2.6 0.00 0.00 0.00 85 1004.3
20260505084347 72 188 0.0 4.3 0.00 0.00 0.00 84 1004.4
20260505083844 72 241 1.7 2.6 0.00 0.00 0.00 84 1004.5
20260505083342 72 270 1.7 4.3 0.00 0.00 0.00 84 1004.7
20260505082838 72 254 0.9 1.7 0.00 0.00 0.00 84 1004.4
20260505082334 72 265 3.5 5.2 0.00 0.00 0.00 83 1004.3
20260505081831 72 243 2.6 4.3 0.00 0.00 0.00 83 1004.4
20260505081327 72 97 0.0 2.6 0.00 0.00 0.00 83 1004.3
20260505080824 72 246 0.0 1.7 0.00 0.00 0.00 83 1004.3
20260505080320 72 175 0.0 7.0 0.00 0.00 0.00 83 1004.4
20260505075815 72 248 1.7 4.3 0.00 0.00 0.00 82 1004.6